This demonstration page uses our WeatherBlox Daily Observations layout. Learn more.

Left ArrowRight Arrow

Hourly Observations for December 31, 2020

Temp ( °F °C ) Dew Point ( °F °C ) Humidity (%) Winds ( mph kmh ) Pressure ( in mb ) Visibility ( mi km ) Precip ( " mm )
12:15 am 00:15 Clear 23 -4.8 19 -7.1 84 84 SSW 9 15 30.21 1023 10 16 N/A
12:35 am 00:35 Clear 22 -5.5 18 -7.7 85 85 SSW 8 13 30.22 1023 10 16 N/A
12:55 am 00:55 Clear 22 -5.6 17 -8.1 83 83 S 8 13 30.22 1023 10 16 N/A
1:15 am 01:15 Clear 21 -6.3 17 -8.6 84 84 SW 3 6 30.23 1024 10 16 N/A
1:35 am 01:35 Clear 22 -5.8 17 -8.1 84 84 SSW 7 11 30.21 1023 10 16 N/A
1:55 am 01:55 Clear 22 -5.8 17 -8.3 83 83 SSW 8 13 30.20 1023 10 16 N/A
2:15 am 02:15 Clear 22 -5.5 18 -8 83 83 S 9 15 30.20 1023 10 16 N/A
2:35 am 02:35 Clear 22 -5.3 18 -8 82 82 SSW 9 15 30.20 1023 10 16 N/A
2:55 am 02:55 Clear 22 -5.5 18 -8 83 83 SSW 9 15 30.20 1023 10 16 N/A
3:15 am 03:15 Clear 22 -5.5 18 -8 83 83 SSW 8 13 30.20 1023 10 16 N/A
3:35 am 03:35 Clear 22 -5.3 18 -8 82 82 SSW 9 15 30.19 1022 10 16 N/A
3:55 am 03:55 Clear 21 -6 17 -8.6 82 82 SW 9 15 30.19 1022 10 16 N/A
4:15 am 04:15 Clear 21 -6 17 -8.5 83 83 SSW 9 15 30.18 1022 10 16 N/A
4:35 am 04:35 Clear 20 -6.5 16 -9 83 83 SSW 9 15 30.18 1022 10 16 N/A
4:55 am 04:55 Clear 20 -6.9 15 -9.4 83 83 SSW 6 9 30.18 1022 10 16 N/A
5:15 am 05:15 Clear 20 -6.7 15 -9.2 83 83 SSW 8 13 30.18 1022 10 16 N/A
5:35 am 05:35 Clear 19 -7.1 15 -9.6 83 83 SSW 6 9 30.17 1022 10 16 N/A
5:55 am 05:55 Clear 19 -7 15 -9.6 82 82 SW 3 6 30.17 1022 10 16 N/A
6:15 am 06:15 Clear 18 -7.6 13 -10.4 81 81 SW 5 7 30.19 1022 10 16 N/A
6:35 am 06:35 Clear 18 -8 14 -10.2 84 84 SW 6 9 30.18 1022 10 16 N/A
6:55 am 06:55 Clear 18 -8 14 -10 86 86 SW 3 6 30.18 1022 10 16 N/A
7:15 am 07:15 Clear 17 -8.2 13 -10.5 84 84 SSW 5 7 30.19 1022 10 16 N/A
7:35 am 07:35 Clear 17 -8.5 13 -10.6 85 85 SW 5 7 30.19 1022 10 16 N/A
7:55 am 07:55 Clear 17 -8.5 13 -10.6 85 85 SW 7 11 30.19 1022 10 16 N/A
8:15 am 08:15 Sunny 17 -8.5 13 -10.6 85 85 S 6 9 30.20 1023 10 16 N/A
8:35 am 08:35 Sunny 15 -9.6 11 -11.6 86 86 S 8 13 30.23 1024 10 16 N/A
8:55 am 08:55 Sunny 17 -8.1 13 -10.5 83 83 SSW 7 11 30.21 1023 10 16 N/A
9:15 am 09:15 Sunny 18 -7.8 14 -10.1 84 84 SSW 6 9 30.21 1023 10 16 N/A
9:35 am 09:35 Sunny 19 -7.1 15 -9.6 83 83 SSW 6 9 30.21 1023 10 16 N/A
9:55 am 09:55 Sunny 21 -6.2 15 -9.2 80 80 SSW 6 9 30.21 1023 10 16 N/A
10:15 am 10:15 Sunny 22 -5.5 16 -8.9 77 77 SSE 3 6 30.20 1023 10 16 N/A
10:35 am 10:35 Sunny 23 -5.1 17 -8.2 79 79 S 9 15 30.19 1023 10 16 N/A
10:55 am 10:55 Sunny 24 -4.4 19 -7.3 80 80 S 13 20 30.21 1023 10 16 N/A
11:15 am 11:15 Sunny 27 -3 21 -6.3 78 78 SSW 12 19 30.19 1022 10 16 N/A
11:35 am 11:35 Sunny 28 -2.3 21 -6.1 75 75 SSW 15 24 30.17 1022 10 16 N/A
11:55 am 11:55 Sunny 29 -1.8 21 -6.2 72 72 SW 9 15 30.16 1021 10 16 N/A
12:15 pm 12:15 Sunny 30 -1.3 21 -6.1 70 70 SW 7 11 30.15 1021 10 16 N/A
12:35 pm 12:35 Sunny 30 -1.1 21 -5.9 70 70 SW 7 11 30.15 1021 10 16 N/A
12:55 pm 12:55 Sunny 32 -0.2 22 -5.6 67 67 SW 9 15 30.12 1020 10 16 N/A
1:15 pm 13:15 Sunny 32 0.2 22 -5.5 66 66 SSW 9 15 30.11 1020 10 16 N/A
1:35 pm 13:35 Sunny 33 0.7 23 -5.2 65 65 SSW 9 15 30.12 1020 10 16 N/A
1:55 pm 13:55 Sunny 34 1.2 23 -4.9 64 64 SW 7 11 30.11 1020 10 16 N/A
2:15 pm 14:15 Sunny 34 1.1 24 -4.5 67 67 SW 6 9 30.11 1020 10 16 N/A
2:35 pm 14:35 Sunny 35 1.8 24 -4.6 63 63 SSW 10 17 30.12 1020 10 16 N/A
2:55 pm 14:55 Sunny 36 2.1 25 -4 64 64 S 9 15 30.12 1020 10 16 N/A
3:15 pm 15:15 Sunny 36 2.2 25 -3.8 65 65 SSW 5 7 30.11 1020 10 16 N/A
3:35 pm 15:35 Sunny 35 1.8 26 -3.2 70 70 S 3 6 30.13 1020 10 16 N/A
3:55 pm 15:55 Sunny 35 1.8 26 -3.2 70 70 N N/A 30.13 1020 10 16 N/A
4:15 pm 16:15 Sunny 33 0.3 26 -3.4 76 76 SSE 3 6 30.14 1021 10 16 N/A
4:35 pm 16:35 Sunny 32 0.2 26 -3.3 78 78 N N/A 30.13 1020 10 16 N/A
4:55 pm 16:55 Sunny 32 -0.2 26 -3.5 79 79 N N/A 30.13 1020 10 16 N/A
5:15 pm 17:15 Sunny 29 -1.5 24 -4.3 81 81 N N/A 30.14 1021 10 16 N/A
5:35 pm 17:35 Clear 28 -2.4 24 -4.6 85 85 N N/A 30.17 1022 10 16 N/A
5:55 pm 17:55 Clear 26 -3.5 23 -5.2 88 88 N N/A 30.17 1022 10 16 N/A
6:15 pm 18:15 Clear 25 -3.7 22 -5.4 88 88 N N/A 30.17 1022 10 16 N/A
6:35 pm 18:35 Clear 22 -5.3 19 -7 88 88 N N/A 30.17 1022 10 16 N/A
6:55 pm 18:55 Clear 24 -4.4 22 -5.4 93 93 N N/A 30.18 1022 10 16 N/A
7:15 pm 19:15 Clear 23 -5.1 20 -6.4 91 91 N N/A 30.19 1023 10 16 N/A
7:35 pm 19:35 Clear 21 -6.3 19 -7.5 91 91 N N/A 30.21 1023 10 16 N/A
7:55 pm 19:55 Clear 22 -5.7 20 -6.7 93 93 N N/A 30.20 1023 10 16 N/A
8:15 pm 20:15 Clear with Mist and Fog 22 -5.3 21 -6.1 94 94 N N/A 30.21 1023 5 8 N/A
8:35 pm 20:35 Clear 23 -4.8 22 -5.5 95 95 SSE 9 15 30.21 1023 10 16 N/A
8:55 pm 20:55 Clear 23 -5.1 21 -6 93 93 S 5 7 30.21 1023 10 16 N/A
9:15 pm 21:15 Clear 23 -4.8 21 -5.9 92 92 S 7 11 30.22 1023 10 16 N/A
9:35 pm 21:35 Clear 25 -3.8 22 -5.5 88 88 S 7 11 30.21 1023 10 16 N/A
9:55 pm 21:55 Clear 24 -4.2 22 -5.8 89 89 S 5 7 30.21 1023 10 16 N/A
10:15 pm 22:15 Clear 23 -5 20 -6.6 89 89 SSW 3 6 30.21 1023 10 16 N/A
10:35 pm 22:35 Clear 19 -7.1 17 -8.5 90 90 N N/A 30.25 1024 10 16 N/A
10:55 pm 22:55 Clear 20 -6.7 18 -7.7 93 93 N N/A 30.23 1024 10 16 N/A
11:15 pm 23:15 Clear 19 -7.1 18 -8 93 93 N N/A 30.25 1024 10 16 N/A
11:35 pm 23:35 Clear 17 -8.4 15 -9.5 92 92 N N/A 30.26 1025 10 16 N/A
11:55 pm 23:55 Clear 17 -8.6 15 -9.6 93 93 N N/A 30.26 1025 10 16 N/A

Powered by AerisWeather